Location: Aiyekoto
(8.4333°N, 4.3667°E)
Time: 22:59:59
(UTC+00:00)

NOSS 3-1 (C) - Pass Details

Date: 07 June 2020
Orbit: 752 x 1456 km, 63.4° (Epoch: 15 June)

Event Time Altitude Azimuth Distance (km) Brightness Sun altitude
Rises 03:07:55 0° 332° (NNW) 4,358 6.9 -30.6°
Reaches altitude 10° 03:10:43 10° 330° (NNW) 3,449 6.4 -30.0°
Maximum altitude 03:19:21 72° 248° (WSW) 1,509 4.1 -28.2°
Drops below altitude 10° 03:28:15 10° 165° (SSE) 3,540 6.2 -26.4°
Sets 03:31:10 0° 162° (SSE) 4,478 6.8 -25.7°
